Location: Bastelaar
(51.0950°N, 3.8602°E)
Time: 01:39:43
(UTC+00:00)

Cosmos 1954 Rocket - Pass Details

Date: 18 November 2025
Orbit: 749 x 776 km, 74.0° (Epoch: 13 December)

Event Time Altitude Azimuth Distance (km) Brightness Sun altitude
Rises 18:06:58 0° 198° (SSW) 3,237 7.6 -20.7°
Reaches altitude 10° 18:09:20 10° 198° (SSW) 2,311 6.7 -21.1°
Maximum altitude 18:14:35 80° 112° (ESE) 787 3.9 -21.9°
Enters shadow 18:16:53 35° 30° (NNE) 1,235 4.8 -22.3°
